This is the latest recevied weather packets stored in our database for station/object TA2NC-13. If no packets are shown the sender has not sent any weather packets the latest 10 day(s).
| Time | Temp. | Humidity | Pressure | Rain* | Wind** | Luminosity | Snow |
|---|---|---|---|---|---|---|---|
| 1778089201 | 8.89° C | 64% | 1016 hPa | 0 mm | - | - | - |
| 1778088600 | 9.44° C | 64% | 1016 hPa | 0 mm | - | - | - |
| 1778088001 | 9.44° C | 62% | 1016 hPa | 0 mm | - | - | - |
| 1778087400 | 10° C | 60% | 1016 hPa | 0 mm | - | - | - |
| 1778086801 | 10.56° C | 58% | 1016 hPa | 0 mm | - | - | - |
| 1778086201 | 11.11° C | 57% | 1016 hPa | 0 mm | - | - | - |
| 1778085601 | 11.11° C | 56% | 1016 hPa | 0 mm | - | - | - |
| 1778085001 | 11.67° C | 55% | 1016 hPa | 0 mm | - | - | - |
| 1778084401 | 12.22° C | 54% | 1016 hPa | 0 mm | - | - | - |
| 1778083801 | 12.22° C | 54% | 1016 hPa | 0 mm | - | - | - |
| 1778083200 | 12.78° C | 53% | 1016 hPa | 0 mm | - | - | - |
| 1778082600 | 12.78° C | 53% | 1016 hPa | 0 mm | - | - | - |
| 1778082001 | 12.78° C | 54% | 1016 hPa | 0 mm | - | - | - |
| 1778081401 | 13.33° C | 55% | 1016 hPa | 0 mm | - | - | - |
| 1778080800 | 13.33° C | 52% | 1016 hPa | 0 mm | - | - | - |
| 1778080200 | 13.33° C | 54% | 1016 hPa | 0 mm | - | - | - |
| 1778079601 | 13.33° C | 52% | 1016 hPa | 0 mm | - | - | - |
| 1778079001 | 13.33° C | 52% | 1016 hPa | 0 mm | - | - | - |
| 1778078401 | 13.89° C | 51% | 1016 hPa | 0 mm | - | - | - |
| 1778077800 | 13.89° C | 50% | 1016 hPa | 0 mm | - | - | - |
| 1778077201 | 14.44° C | 49% | 1016 hPa | 0 mm | - | - | - |
| 1778076601 | 14.44° C | 49% | 1016 hPa | 0 mm | - | - | - |
| 1778076001 | 15° C | 49% | 1017 hPa | 0 mm | - | - | - |
| 1778075401 | 15° C | 51% | 1017 hPa | 0 mm | - | - | - |
| 1778074801 | 14.44° C | 52% | 1017 hPa | 0 mm | - | - | - |
* Rain latest hour (hover to see other rain measurements)
** Current wind speed in m/s (hover to see current wind gust speed)